Time,TemperatureF,DewpointF,PressureIn,WindDirection,WindDirectionDegrees,WindSpeedMPH,WindSpeedGustMPH,Humidity,HourlyPrecipIn,Conditions,Clouds,dailyrainin,SoftwareType,DateUTC
2013-04-21 00:09:00,54.7,39.2,30.23,SE,135,0.0,-999.0,56,0.00,,,0.00,open2300 v1.10,2013-04-21 05:09:00,
2013-04-21 00:14:00,54.5,39.5,30.22,SE,135,0.0,-999.0,57,0.00,,,0.00,open2300 v1.10,2013-04-21 05:14:00,
2013-04-21 00:19:00,54.3,39.3,30.22,SE,135,0.7,-999.0,57,0.00,,,0.00,open2300 v1.10,2013-04-21 05:19:00,
2013-04-21 00:24:00,54.3,39.3,30.22,SE,135,0.0,-999.0,57,0.00,,,0.00,open2300 v1.10,2013-04-21 05:24:00,
2013-04-21 00:29:00,54.1,39.2,30.22,SE,135,0.0,-999.0,57,0.00,,,0.00,open2300 v1.10,2013-04-21 05:29:00,
2013-04-21 00:34:00,54.0,39.5,30.22,SE,135,0.0,-999.0,58,0.00,,,0.00,open2300 v1.10,2013-04-21 05:34:00,
2013-04-21 00:39:00,54.0,39.5,30.22,SE,135,0.0,-999.0,58,0.00,,,0.00,open2300 v1.10,2013-04-21 05:39:00,
2013-04-21 00:44:00,53.8,39.3,30.22,ESE,112,0.0,-999.0,58,0.00,,,0.00,open2300 v1.10,2013-04-21 05:44:00,
2013-04-21 00:49:00,53.4,39.0,30.22,ESE,112,0.0,-999.0,58,0.00,,,0.00,open2300 v1.10,2013-04-21 05:49:00,
2013-04-21 00:54:00,53.4,39.0,30.22,SE,135,0.0,-999.0,58,0.00,,,0.00,open2300 v1.10,2013-04-21 05:54:00,
2013-04-21 00:59:00,53.2,38.8,30.22,SE,135,0.0,-999.0,58,0.00,,,0.00,open2300 v1.10,2013-04-21 05:59:00,
2013-04-21 01:05:00,53.2,38.8,30.22,SE,135,0.0,-999.0,58,0.00,,,0.00,open2300 v1.10,2013-04-21 06:05:00,
2013-04-21 01:14:00,52.9,38.9,30.22,SE,135,0.0,-999.0,59,0.00,,,0.00,open2300 v1.10,2013-04-21 06:14:00,
2013-04-21 01:19:00,52.7,38.7,30.22,SE,135,0.0,-999.0,59,0.00,,,0.00,open2300 v1.10,2013-04-21 06:19:00,
2013-04-21 01:24:00,52.7,38.7,30.22,SE,135,0.0,-999.0,59,0.00,,,0.00,open2300 v1.10,2013-04-21 06:24:00,
2013-04-21 01:29:00,52.5,38.5,30.22,SE,135,0.0,-999.0,59,0.00,,,0.00,open2300 v1.10,2013-04-21 06:29:00,
2013-04-21 01:34:00,52.3,38.8,30.22,SE,135,0.0,-999.0,60,0.00,,,0.00,open2300 v1.10,2013-04-21 06:34:00,
2013-04-21 01:39:00,52.3,38.8,30.22,SE,135,0.0,-999.0,60,0.00,,,0.00,open2300 v1.10,2013-04-21 06:39:00,
2013-04-21 01:49:00,52.2,38.7,30.22,SE,135,0.0,-999.0,60,0.00,,,0.00,open2300 v1.10,2013-04-21 06:49:00,
2013-04-21 01:54:00,52.0,38.9,30.21,SE,135,0.0,-999.0,61,0.00,,,0.00,open2300 v1.10,2013-04-21 06:54:00,
2013-04-21 01:59:00,51.6,38.5,30.21,SE,135,0.0,-999.0,61,0.00,,,0.00,open2300 v1.10,2013-04-21 06:59:00,
2013-04-21 02:09:00,51.6,38.5,30.21,SE,135,0.0,-999.0,61,0.00,,,0.00,open2300 v1.10,2013-04-21 07:09:00,
2013-04-21 02:14:00,51.4,38.8,30.20,SE,135,0.0,-999.0,62,0.00,,,0.00,open2300 v1.10,2013-04-21 07:14:00,
2013-04-21 02:19:00,51.4,38.8,30.20,SE,135,0.0,-999.0,62,0.00,,,0.00,open2300 v1.10,2013-04-21 07:19:00,
2013-04-21 02:24:00,51.3,38.6,30.20,SE,135,0.0,-999.0,62,0.00,,,0.00,open2300 v1.10,2013-04-21 07:24:00,
2013-04-21 02:29:00,50.9,38.7,30.20,ESE,112,0.0,-999.0,63,0.00,,,0.00,open2300 v1.10,2013-04-21 07:29:00,
2013-04-21 02:34:00,50.9,38.7,30.20,ESE,112,0.0,-999.0,63,0.00,,,0.00,open2300 v1.10,2013-04-21 07:34:00,
2013-04-21 02:39:00,50.7,38.5,30.20,ESE,112,0.0,-999.0,63,0.00,,,0.00,open2300 v1.10,2013-04-21 07:39:00,
2013-04-21 02:44:00,50.5,38.3,30.20,ESE,112,0.0,-999.0,63,0.00,,,0.00,open2300 v1.10,2013-04-21 07:44:00,
2013-04-21 02:49:00,50.5,38.8,30.20,ESE,112,0.0,-999.0,64,0.00,,,0.00,open2300 v1.10,2013-04-21 07:49:00,
2013-04-21 02:54:00,50.4,38.6,30.19,ESE,112,0.0,-999.0,64,0.00,,,0.00,open2300 v1.10,2013-04-21 07:54:00,
2013-04-21 02:59:00,50.2,38.8,30.20,ESE,112,0.0,-999.0,65,0.00,,,0.00,open2300 v1.10,2013-04-21 07:59:00,
2013-04-21 03:09:00,50.0,38.7,30.19,ESE,112,0.4,-999.0,65,0.00,,,0.00,open2300 v1.10,2013-04-21 08:09:00,
2013-04-21 03:14:00,49.8,38.5,30.19,ESE,112,0.0,-999.0,65,0.00,,,0.00,open2300 v1.10,2013-04-21 08:14:00,
2013-04-21 03:19:00,49.8,38.5,30.19,ESE,112,0.0,-999.0,65,0.00,,,0.00,open2300 v1.10,2013-04-21 08:19:00,
2013-04-21 03:24:00,49.6,38.3,30.19,ESE,112,0.0,-999.0,65,0.00,,,0.00,open2300 v1.10,2013-04-21 08:24:00,
2013-04-21 03:29:00,49.6,38.7,30.20,ESE,112,0.0,-999.0,66,0.00,,,0.00,open2300 v1.10,2013-04-21 08:29:00,
2013-04-21 03:34:00,49.6,38.7,30.19,ESE,112,0.0,-999.0,66,0.00,,,0.00,open2300 v1.10,2013-04-21 08:34:00,
2013-04-21 03:39:00,49.5,38.5,30.19,ESE,112,0.0,-999.0,66,0.00,,,0.00,open2300 v1.10,2013-04-21 08:39:00,
2013-04-21 03:44:00,49.3,38.8,30.19,ESE,112,0.0,-999.0,67,0.00,,,0.00,open2300 v1.10,2013-04-21 08:44:00,
2013-04-21 03:49:00,49.3,38.8,30.19,ESE,112,0.0,-999.0,67,0.00,,,0.00,open2300 v1.10,2013-04-21 08:49:00,
2013-04-21 03:54:00,49.3,38.8,30.19,ESE,112,0.0,-999.0,67,0.00,,,0.00,open2300 v1.10,2013-04-21 08:54:00,
2013-04-21 03:59:00,49.3,38.8,30.19,ESE,112,0.0,-999.0,67,0.00,,,0.00,open2300 v1.10,2013-04-21 08:59:00,
2013-04-21 04:09:00,49.1,38.6,30.19,ESE,112,0.0,-999.0,67,0.00,,,0.00,open2300 v1.10,2013-04-21 09:09:00,
2013-04-21 04:14:00,48.9,38.4,30.19,ESE,112,0.0,-999.0,67,0.00,,,0.00,open2300 v1.10,2013-04-21 09:14:00,
2013-04-21 04:19:00,48.9,38.4,30.19,ESE,112,0.0,-999.0,67,0.00,,,0.00,open2300 v1.10,2013-04-21 09:19:00,
2013-04-21 04:24:00,48.9,38.4,30.19,ESE,112,0.0,-999.0,67,0.00,,,0.00,open2300 v1.10,2013-04-21 09:24:00,
2013-04-21 04:29:00,48.7,38.2,30.19,ESE,112,0.0,-999.0,67,0.00,,,0.00,open2300 v1.10,2013-04-21 09:29:00,
2013-04-21 04:34:00,48.7,38.2,30.19,ESE,112,0.0,-999.0,67,0.00,,,0.00,open2300 v1.10,2013-04-21 09:34:00,
2013-04-21 04:39:00,48.6,38.0,30.19,ESE,112,0.0,-999.0,67,0.00,,,0.00,open2300 v1.10,2013-04-21 09:39:00,
2013-04-21 04:44:00,48.6,38.4,30.19,ESE,112,0.0,-999.0,68,0.00,,,0.00,open2300 v1.10,2013-04-21 09:44:00,
2013-04-21 04:49:00,48.6,38.4,30.19,ESE,112,0.0,-999.0,68,0.00,,,0.00,open2300 v1.10,2013-04-21 09:49:00,
2013-04-21 04:59:00,48.4,38.2,30.19,ESE,112,0.0,-999.0,68,0.00,,,0.00,open2300 v1.10,2013-04-21 09:59:00,
2013-04-21 05:09:00,48.0,37.9,30.19,ESE,112,0.0,-999.0,68,0.00,,,0.00,open2300 v1.10,2013-04-21 10:09:00,
2013-04-21 05:14:00,48.0,37.9,30.19,ESE,112,0.0,-999.0,68,0.00,,,0.00,open2300 v1.10,2013-04-21 10:14:00,
2013-04-21 05:24:00,48.0,37.9,30.20,SE,135,0.0,-999.0,68,0.00,,,0.00,open2300 v1.10,2013-04-21 10:24:00,
2013-04-21 05:29:00,47.8,37.7,30.19,ESE,112,0.0,-999.0,68,0.00,,,0.00,open2300 v1.10,2013-04-21 10:29:00,
2013-04-21 05:34:00,47.8,37.7,30.20,ESE,112,0.0,-999.0,68,0.00,,,0.00,open2300 v1.10,2013-04-21 10:34:00,
2013-04-21 05:39:00,47.8,38.1,30.20,ESE,112,0.0,-999.0,69,0.00,,,0.00,open2300 v1.10,2013-04-21 10:39:00,
2013-04-21 05:49:00,47.5,37.8,30.21,ESE,112,0.0,-999.0,69,0.00,,,0.00,open2300 v1.10,2013-04-21 10:49:00,
2013-04-21 05:59:00,47.5,37.8,30.21,ESE,112,0.0,-999.0,69,0.00,,,0.00,open2300 v1.10,2013-04-21 10:59:00,
2013-04-21 06:09:00,47.3,37.6,30.21,ESE,112,0.0,-999.0,69,0.00,,,0.00,open2300 v1.10,2013-04-21 11:09:00,
2013-04-21 06:14:00,47.1,37.9,30.21,ESE,112,0.0,-999.0,70,0.00,,,0.00,open2300 v1.10,2013-04-21 11:14:00,
2013-04-21 06:19:00,47.1,37.9,30.21,ESE,112,0.0,-999.0,70,0.00,,,0.00,open2300 v1.10,2013-04-21 11:19:00,
2013-04-21 06:24:00,46.9,37.7,30.22,ESE,112,0.0,-999.0,70,0.00,,,0.00,open2300 v1.10,2013-04-21 11:24:00,
2013-04-21 06:29:00,46.8,37.5,30.22,ESE,112,0.0,-999.0,70,0.00,,,0.00,open2300 v1.10,2013-04-21 11:29:00,
2013-04-21 06:34:00,46.8,37.9,30.22,ESE,112,0.0,-999.0,71,0.00,,,0.00,open2300 v1.10,2013-04-21 11:34:00,
2013-04-21 06:39:00,46.6,37.7,30.22,ESE,112,0.9,-999.0,71,0.00,,,0.00,open2300 v1.10,2013-04-21 11:39:00,
2013-04-21 06:49:00,46.6,37.7,30.22,ESE,112,0.0,-999.0,71,0.00,,,0.00,open2300 v1.10,2013-04-21 11:49:00,
2013-04-21 06:54:00,46.6,37.7,30.22,ESE,112,0.0,-999.0,71,0.00,,,0.00,open2300 v1.10,2013-04-21 11:54:00,
2013-04-21 06:59:00,46.6,38.1,30.23,ESE,112,0.0,-999.0,72,0.00,,,0.00,open2300 v1.10,2013-04-21 11:59:00,
2013-04-21 07:09:00,46.9,38.4,30.22,ESE,112,0.0,-999.0,72,0.00,,,0.00,open2300 v1.10,2013-04-21 12:09:00,
2013-04-21 07:14:00,47.5,38.5,30.22,SE,135,0.0,-999.0,71,0.00,,,0.00,open2300 v1.10,2013-04-21 12:14:00,
2013-04-21 07:19:00,47.8,38.9,30.22,SE,135,0.0,-999.0,71,0.00,,,0.00,open2300 v1.10,2013-04-21 12:19:00,
2013-04-21 07:24:00,48.0,38.7,30.22,SE,135,0.0,-999.0,70,0.00,,,0.00,open2300 v1.10,2013-04-21 12:24:00,
2013-04-21 07:29:00,48.9,39.6,30.22,SE,135,6.0,-999.0,70,0.00,,,0.00,open2300 v1.10,2013-04-21 12:29:00,
2013-04-21 07:39:00,49.8,39.7,30.22,ESE,112,0.0,-999.0,68,0.00,,,0.00,open2300 v1.10,2013-04-21 12:39:00,
2013-04-21 07:44:00,50.2,39.6,30.23,ESE,112,0.9,-999.0,67,0.00,,,0.00,open2300 v1.10,2013-04-21 12:44:00,
2013-04-21 07:49:00,50.5,40.0,30.23,SE,135,0.0,-999.0,67,0.00,,,0.00,open2300 v1.10,2013-04-21 12:49:00,
2013-04-21 07:54:00,51.1,40.1,30.22,ESE,112,5.6,-999.0,66,0.00,,,0.00,open2300 v1.10,2013-04-21 12:54:00,
2013-04-21 07:59:00,51.4,40.0,30.23,ESE,112,0.0,-999.0,65,0.00,,,0.00,open2300 v1.10,2013-04-21 12:59:00,
2013-04-21 08:09:00,52.2,40.3,30.23,SE,135,5.4,-999.0,64,0.00,,,0.00,open2300 v1.10,2013-04-21 13:09:00,
2013-04-21 08:14:00,52.9,40.6,30.23,SSE,157,0.0,-999.0,63,0.00,,,0.00,open2300 v1.10,2013-04-21 13:14:00,
2013-04-21 08:19:00,53.4,40.7,30.23,ESE,112,0.0,-999.0,62,0.00,,,0.00,open2300 v1.10,2013-04-21 13:19:00,
2013-04-21 08:24:00,53.8,40.7,30.23,ESE,112,0.0,-999.0,61,0.00,,,0.00,open2300 v1.10,2013-04-21 13:24:00,
2013-04-21 08:29:00,54.5,40.9,30.23,SE,135,0.0,-999.0,60,0.00,,,0.00,open2300 v1.10,2013-04-21 13:29:00,
2013-04-21 08:34:00,54.9,40.8,30.24,ESE,112,1.6,-999.0,59,0.00,,,0.00,open2300 v1.10,2013-04-21 13:34:00,
2013-04-21 08:39:00,55.4,40.8,30.24,ESE,112,6.9,-999.0,58,0.00,,,0.00,open2300 v1.10,2013-04-21 13:39:00,
2013-04-21 08:44:00,55.8,40.7,30.24,SE,135,0.0,-999.0,57,0.00,,,0.00,open2300 v1.10,2013-04-21 13:44:00,
2013-04-21 08:49:00,56.1,41.0,30.24,ESE,112,0.7,-999.0,57,0.00,,,0.00,open2300 v1.10,2013-04-21 13:49:00,
2013-04-21 08:54:00,56.7,41.1,30.25,SSE,157,4.9,-999.0,56,0.00,,,0.00,open2300 v1.10,2013-04-21 13:54:00,
2013-04-21 08:59:00,57.0,41.0,30.24,ESE,112,9.4,-999.0,55,0.00,,,0.00,open2300 v1.10,2013-04-21 13:59:00,
2013-04-21 09:09:00,57.6,41.5,30.25,East,90,0.4,-999.0,55,0.00,,,0.00,open2300 v1.10,2013-04-21 14:09:00,
2013-04-21 09:14:00,58.1,41.0,30.25,ESE,112,4.9,-999.0,53,0.00,,,0.00,open2300 v1.10,2013-04-21 14:14:00,
2013-04-21 12:14:00,65.5,41.1,30.22,SSE,157,6.5,-999.0,41,0.00,,,0.00,open2300 v1.10,2013-04-21 17:14:00,
2013-04-21 12:19:00,65.7,41.3,30.22,South,180,8.9,-999.0,41,0.00,,,0.00,open2300 v1.10,2013-04-21 17:19:00,
2013-04-21 12:24:00,65.8,40.9,30.22,South,180,5.8,-999.0,40,0.00,,,0.00,open2300 v1.10,2013-04-21 17:24:00,
2013-04-21 12:29:00,66.0,41.0,30.22,SSW,202,0.0,-999.0,40,0.00,,,0.00,open2300 v1.10,2013-04-21 17:29:00,
2013-04-21 12:34:00,66.2,41.2,30.21,South,180,0.0,-999.0,40,0.00,,,0.00,open2300 v1.10,2013-04-21 17:34:00,
2013-04-21 12:39:00,66.4,41.9,30.21,ESE,112,1.8,-999.0,41,0.00,,,0.00,open2300 v1.10,2013-04-21 17:39:00,
2013-04-21 12:49:00,66.7,41.7,30.21,South,180,10.5,-999.0,40,0.00,,,0.00,open2300 v1.10,2013-04-21 17:49:00,
2013-04-21 12:54:00,66.7,41.7,30.21,SSE,157,6.9,-999.0,40,0.00,,,0.00,open2300 v1.10,2013-04-21 17:54:00,
2013-04-21 12:59:00,66.9,41.8,30.20,ESE,112,0.0,-999.0,40,0.00,,,0.00,open2300 v1.10,2013-04-21 17:59:00,
2013-04-21 13:09:00,67.3,41.4,30.20,South,180,5.6,-999.0,39,0.00,,,0.00,open2300 v1.10,2013-04-21 18:09:00,
2013-04-21 13:14:00,67.6,42.5,30.20,SE,135,4.7,-999.0,40,0.00,,,0.00,open2300 v1.10,2013-04-21 18:14:00,
2013-04-21 13:19:00,67.6,41.7,30.20,SE,135,3.1,-999.0,39,0.00,,,0.00,open2300 v1.10,2013-04-21 18:19:00,
2013-04-21 13:24:00,67.6,43.1,30.19,SW,225,6.7,-999.0,41,0.00,,,0.00,open2300 v1.10,2013-04-21 18:24:00,
2013-04-21 13:29:00,67.8,43.2,30.19,SE,135,0.7,-999.0,41,0.00,,,0.00,open2300 v1.10,2013-04-21 18:29:00,
2013-04-21 13:34:00,67.8,41.9,30.19,East,90,11.4,-999.0,39,0.00,,,0.00,open2300 v1.10,2013-04-21 18:34:00,
2013-04-21 13:39:00,68.2,42.2,30.19,SE,135,10.7,-999.0,39,0.00,,,0.00,open2300 v1.10,2013-04-21 18:39:00,
2013-04-21 13:44:00,68.2,42.2,30.19,ESE,112,9.8,-999.0,39,0.00,,,0.00,open2300 v1.10,2013-04-21 18:44:00,
2013-04-21 13:49:00,68.2,42.2,30.19,SE,135,6.0,-999.0,39,0.00,,,0.00,open2300 v1.10,2013-04-21 18:49:00,
2013-04-21 13:54:00,68.2,42.2,30.19,South,180,13.4,-999.0,39,0.00,,,0.00,open2300 v1.10,2013-04-21 18:54:00,
2013-04-21 13:59:00,68.4,43.1,30.19,South,180,4.7,-999.0,40,0.00,,,0.00,open2300 v1.10,2013-04-21 18:59:00,
2013-04-21 14:09:00,68.5,43.9,30.18,South,180,4.5,-999.0,40,0.00,,,0.00,open2300 v1.10,2013-04-21 19:09:00,
2013-04-21 14:19:00,68.9,42.9,30.18,SSE,157,13.2,-999.0,39,0.00,,,0.00,open2300 v1.10,2013-04-21 19:19:00,
2013-04-21 14:24:00,68.9,42.1,30.18,SSE,157,6.5,-999.0,38,0.00,,,0.00,open2300 v1.10,2013-04-21 19:24:00,
2013-04-21 14:29:00,68.9,42.1,30.18,East,90,7.2,-999.0,38,0.00,,,0.00,open2300 v1.10,2013-04-21 19:29:00,
2013-04-21 14:34:00,69.1,42.3,30.18,South,180,6.7,-999.0,38,0.00,,,0.00,open2300 v1.10,2013-04-21 19:34:00,
2013-04-21 14:39:00,69.1,42.3,30.18,SSE,157,0.0,-999.0,38,0.00,,,0.00,open2300 v1.10,2013-04-21 19:39:00,
2013-04-21 14:44:00,69.1,42.3,30.17,SSE,157,6.3,-999.0,38,0.00,,,0.00,open2300 v1.10,2013-04-21 19:44:00,
2013-04-21 14:54:00,69.3,43.2,30.17,South,180,6.5,-999.0,39,0.00,,,0.00,open2300 v1.10,2013-04-21 19:54:00,
2013-04-21 14:59:00,69.4,44.1,30.17,East,90,0.0,-999.0,40,0.00,,,0.00,open2300 v1.10,2013-04-21 19:59:00,
2013-04-21 15:09:00,69.8,43.7,30.16,ESE,112,5.4,-999.0,39,0.00,,,0.00,open2300 v1.10,2013-04-21 20:09:00,
2013-04-21 15:19:00,70.2,43.3,30.16,ESE,112,4.9,-999.0,38,0.00,,,0.00,open2300 v1.10,2013-04-21 20:19:00,
2013-04-21 15:29:00,70.2,42.5,30.15,SE,135,0.9,-999.0,37,0.00,,,0.00,open2300 v1.10,2013-04-21 20:29:00,
2013-04-21 15:34:00,70.3,42.7,30.15,South,180,10.5,-999.0,37,0.00,,,0.00,open2300 v1.10,2013-04-21 20:34:00,
2013-04-21 15:39:00,70.3,42.7,30.15,ESE,112,6.3,-999.0,37,0.00,,,0.00,open2300 v1.10,2013-04-21 20:39:00,
2013-04-21 15:44:00,70.3,42.7,30.14,SE,135,8.5,-999.0,37,0.00,,,0.00,open2300 v1.10,2013-04-21 20:44:00,
2013-04-21 15:49:00,70.3,42.7,30.14,SE,135,6.9,-999.0,37,0.00,,,0.00,open2300 v1.10,2013-04-21 20:49:00,
2013-04-21 15:54:00,70.3,42.7,30.14,ESE,112,0.0,-999.0,37,0.00,,,0.00,open2300 v1.10,2013-04-21 20:54:00,
2013-04-21 15:59:00,70.3,42.7,30.14,ESE,112,3.1,-999.0,37,0.00,,,0.00,open2300 v1.10,2013-04-21 20:59:00,
2013-04-21 16:09:00,70.5,42.8,30.13,SSE,157,0.0,-999.0,37,0.00,,,0.00,open2300 v1.10,2013-04-21 21:09:00,
2013-04-21 16:14:00,70.5,42.8,30.13,SE,135,0.9,-999.0,37,0.00,,,0.00,open2300 v1.10,2013-04-21 21:14:00,
2013-04-21 16:19:00,70.7,43.0,30.13,South,180,11.4,-999.0,37,0.00,,,0.00,open2300 v1.10,2013-04-21 21:19:00,
2013-04-21 16:24:00,70.7,43.0,30.13,South,180,0.0,-999.0,37,0.00,,,0.00,open2300 v1.10,2013-04-21 21:24:00,
2013-04-21 16:29:00,70.7,43.0,30.13,SSW,202,0.0,-999.0,37,0.00,,,0.00,open2300 v1.10,2013-04-21 21:29:00,
2013-04-21 16:39:00,70.9,42.4,30.13,ESE,112,1.1,-999.0,36,0.00,,,0.00,open2300 v1.10,2013-04-21 21:39:00,
2013-04-21 16:44:00,70.9,42.4,30.13,SE,135,4.9,-999.0,36,0.00,,,0.00,open2300 v1.10,2013-04-21 21:44:00,
2013-04-21 16:49:00,70.7,42.3,30.12,SE,135,0.0,-999.0,36,0.00,,,0.00,open2300 v1.10,2013-04-21 21:49:00,
2013-04-21 16:54:00,70.9,42.4,30.13,SE,135,0.0,-999.0,36,0.00,,,0.00,open2300 v1.10,2013-04-21 21:54:00,
2013-04-21 16:59:00,70.9,42.4,30.13,South,180,3.4,-999.0,36,0.00,,,0.00,open2300 v1.10,2013-04-21 21:59:00,
2013-04-21 17:09:00,70.7,42.3,30.13,South,180,7.2,-999.0,36,0.00,,,0.00,open2300 v1.10,2013-04-21 22:09:00,
2013-04-21 17:14:00,70.7,42.3,30.13,South,180,6.9,-999.0,36,0.00,,,0.00,open2300 v1.10,2013-04-21 22:14:00,
2013-04-21 17:19:00,70.9,42.4,30.13,SE,135,4.5,-999.0,36,0.00,,,0.00,open2300 v1.10,2013-04-21 22:19:00,
2013-04-21 17:24:00,70.7,43.0,30.13,ESE,112,0.0,-999.0,37,0.00,,,0.00,open2300 v1.10,2013-04-21 22:24:00,
2013-04-21 17:29:00,70.7,43.0,30.13,SE,135,4.5,-999.0,37,0.00,,,0.00,open2300 v1.10,2013-04-21 22:29:00,
2013-04-21 17:34:00,70.7,43.0,30.13,SE,135,6.7,-999.0,37,0.00,,,0.00,open2300 v1.10,2013-04-21 22:34:00,
2013-04-21 17:39:00,70.7,43.0,30.13,ESE,112,1.1,-999.0,37,0.00,,,0.00,open2300 v1.10,2013-04-21 22:39:00,
2013-04-21 17:49:00,70.5,42.8,30.14,ESE,112,9.4,-999.0,37,0.00,,,0.00,open2300 v1.10,2013-04-21 22:49:00,
2013-04-21 17:54:00,70.5,42.8,30.14,ESE,112,0.0,-999.0,37,0.00,,,0.00,open2300 v1.10,2013-04-21 22:54:00,
2013-04-21 17:59:00,70.5,42.8,30.14,SE,135,4.2,-999.0,37,0.00,,,0.00,open2300 v1.10,2013-04-21 22:59:00,
2013-04-21 18:09:00,70.5,42.8,30.14,East,90,7.6,-999.0,37,0.00,,,0.00,open2300 v1.10,2013-04-21 23:09:00,
2013-04-21 18:14:00,70.5,42.8,30.14,SE,135,0.0,-999.0,37,0.00,,,0.00,open2300 v1.10,2013-04-21 23:14:00,
2013-04-21 18:19:00,70.5,43.6,30.14,SE,135,0.0,-999.0,38,0.00,,,0.00,open2300 v1.10,2013-04-21 23:19:00,
2013-04-21 18:24:00,70.3,43.4,30.14,SE,135,0.0,-999.0,38,0.00,,,0.00,open2300 v1.10,2013-04-21 23:24:00,
2013-04-21 18:34:00,70.2,44.0,30.14,SE,135,7.6,-999.0,39,0.00,,,0.00,open2300 v1.10,2013-04-21 23:34:00,
2013-04-21 18:39:00,70.0,43.8,30.14,ESE,112,0.0,-999.0,39,0.00,,,0.00,open2300 v1.10,2013-04-21 23:39:00,
2013-04-21 18:44:00,69.8,43.7,30.14,SE,135,0.0,-999.0,39,0.00,,,0.00,open2300 v1.10,2013-04-21 23:44:00,
2013-04-21 18:49:00,69.6,43.5,30.14,SE,135,0.0,-999.0,39,0.00,,,0.00,open2300 v1.10,2013-04-21 23:49:00,
2013-04-21 18:54:00,69.6,43.5,30.14,SE,135,2.0,-999.0,39,0.00,,,0.00,open2300 v1.10,2013-04-21 23:54:00,
2013-04-21 19:04:00,69.1,43.8,30.14,ESE,112,0.0,-999.0,40,0.00,,,0.00,open2300 v1.10,2013-04-22 00:04:00,
2013-04-21 19:09:00,68.9,43.6,30.14,ESE,112,0.0,-999.0,40,0.00,,,0.00,open2300 v1.10,2013-04-22 00:09:00,
2013-04-21 19:14:00,68.7,44.0,30.14,ESE,112,0.0,-999.0,41,0.00,,,0.00,open2300 v1.10,2013-04-22 00:14:00,
2013-04-21 19:19:00,68.7,44.0,30.14,ESE,112,0.0,-999.0,41,0.00,,,0.00,open2300 v1.10,2013-04-22 00:19:00,
2013-04-21 19:29:00,68.2,43.6,30.14,ESE,112,0.0,-999.0,41,0.00,,,0.00,open2300 v1.10,2013-04-22 00:29:00,
2013-04-21 19:39:00,67.6,43.7,30.14,SE,135,0.7,-999.0,42,0.00,,,0.00,open2300 v1.10,2013-04-22 00:39:00,
2013-04-21 19:49:00,67.1,43.8,30.15,SE,135,0.0,-999.0,43,0.00,,,0.00,open2300 v1.10,2013-04-22 00:49:00,
2013-04-21 19:54:00,66.7,44.0,30.15,SE,135,0.0,-999.0,44,0.00,,,0.00,open2300 v1.10,2013-04-22 00:54:00,
2013-04-21 19:59:00,66.4,43.7,30.15,SE,135,0.0,-999.0,44,0.00,,,0.00,open2300 v1.10,2013-04-22 00:59:00,
2013-04-21 20:09:00,65.8,43.8,30.15,ESE,112,0.0,-999.0,45,0.00,,,0.00,open2300 v1.10,2013-04-22 01:09:00,
2013-04-21 20:14:00,65.5,44.0,30.15,ESE,112,0.0,-999.0,46,0.00,,,0.00,open2300 v1.10,2013-04-22 01:14:00,
2013-04-21 20:19:00,65.3,43.9,30.16,ESE,112,0.0,-999.0,46,0.00,,,0.00,open2300 v1.10,2013-04-22 01:19:00,
2013-04-21 20:24:00,64.9,44.1,30.15,ESE,112,0.0,-999.0,47,0.00,,,0.00,open2300 v1.10,2013-04-22 01:24:00,
2013-04-21 20:34:00,64.6,44.3,30.16,ESE,112,0.0,-999.0,48,0.00,,,0.00,open2300 v1.10,2013-04-22 01:34:00,
2013-04-21 20:39:00,64.2,44.0,30.16,ESE,112,0.0,-999.0,48,0.00,,,0.00,open2300 v1.10,2013-04-22 01:39:00,
2013-04-21 20:49:00,63.7,43.5,30.16,ESE,112,0.0,-999.0,48,0.00,,,0.00,open2300 v1.10,2013-04-22 01:49:00,
2013-04-21 20:54:00,63.5,43.9,30.16,ESE,112,0.0,-999.0,49,0.00,,,0.00,open2300 v1.10,2013-04-22 01:54:00,
2013-04-21 20:59:00,63.3,43.8,30.16,ESE,112,0.0,-999.0,49,0.00,,,0.00,open2300 v1.10,2013-04-22 01:59:00,
2013-04-21 21:09:00,63.0,43.5,30.16,ESE,112,0.0,-999.0,49,0.00,,,0.00,open2300 v1.10,2013-04-22 02:09:00,
2013-04-21 21:19:00,62.4,43.0,30.16,ESE,112,0.4,-999.0,49,0.00,,,0.00,open2300 v1.10,2013-04-22 02:19:00,
2013-04-21 21:24:00,62.4,43.0,30.16,ESE,112,0.0,-999.0,49,0.00,,,0.00,open2300 v1.10,2013-04-22 02:24:00,
2013-04-21 21:29:00,62.2,42.8,30.16,ESE,112,0.0,-999.0,49,0.00,,,0.00,open2300 v1.10,2013-04-22 02:29:00,
2013-04-21 21:34:00,62.1,42.6,30.17,ESE,112,0.0,-999.0,49,0.00,,,0.00,open2300 v1.10,2013-04-22 02:34:00,
2013-04-21 21:39:00,61.9,42.5,30.16,ESE,112,0.0,-999.0,49,0.00,,,0.00,open2300 v1.10,2013-04-22 02:39:00,
2013-04-21 21:44:00,61.5,42.2,30.16,ESE,112,0.0,-999.0,49,0.00,,,0.00,open2300 v1.10,2013-04-22 02:44:00,
2013-04-21 21:49:00,61.5,42.7,30.17,ESE,112,0.0,-999.0,50,0.00,,,0.00,open2300 v1.10,2013-04-22 02:49:00,
2013-04-21 21:54:00,61.3,42.6,30.17,ESE,112,0.0,-999.0,50,0.00,,,0.00,open2300 v1.10,2013-04-22 02:54:00,
2013-04-21 21:59:00,61.2,42.4,30.17,ESE,112,0.0,-999.0,50,0.00,,,0.00,open2300 v1.10,2013-04-22 02:59:00,
2013-04-21 22:09:00,61.0,42.2,30.16,SSE,157,0.0,-999.0,50,0.00,,,0.00,open2300 v1.10,2013-04-22 03:09:00,
2013-04-21 22:14:00,60.6,41.9,30.16,SSE,157,0.0,-999.0,50,0.00,,,0.00,open2300 v1.10,2013-04-22 03:14:00,
2013-04-21 22:19:00,60.6,41.9,30.16,SSE,157,0.0,-999.0,50,0.00,,,0.00,open2300 v1.10,2013-04-22 03:19:00,
2013-04-21 22:24:00,60.6,42.4,30.16,SSE,157,0.0,-999.0,51,0.00,,,0.00,open2300 v1.10,2013-04-22 03:24:00,
2013-04-21 22:29:00,60.6,42.4,30.16,SSE,157,0.0,-999.0,51,0.00,,,0.00,open2300 v1.10,2013-04-22 03:29:00,
2013-04-21 22:34:00,60.4,42.2,30.16,SSE,157,0.0,-999.0,51,0.00,,,0.00,open2300 v1.10,2013-04-22 03:34:00,
2013-04-21 22:39:00,60.3,42.1,30.15,SSE,157,0.0,-999.0,51,0.00,,,0.00,open2300 v1.10,2013-04-22 03:39:00,
2013-04-21 22:49:00,60.1,41.9,30.16,SSE,157,0.0,-999.0,51,0.00,,,0.00,open2300 v1.10,2013-04-22 03:49:00,
2013-04-21 22:54:00,59.9,42.2,30.16,SSE,157,0.0,-999.0,52,0.00,,,0.00,open2300 v1.10,2013-04-22 03:54:00,
2013-04-21 22:59:00,59.7,42.0,30.16,SSE,157,0.0,-999.0,52,0.00,,,0.00,open2300 v1.10,2013-04-22 03:59:00,
2013-04-21 23:04:00,59.7,42.0,30.16,SSE,157,0.0,-999.0,52,0.00,,,0.00,open2300 v1.10,2013-04-22 04:04:00,
2013-04-21 23:09:00,59.5,41.9,30.16,SSE,157,0.0,-999.0,52,0.00,,,0.00,open2300 v1.10,2013-04-22 04:09:00,
2013-04-21 23:14:00,59.4,42.2,30.16,SSE,157,0.0,-999.0,53,0.00,,,0.00,open2300 v1.10,2013-04-22 04:14:00,
2013-04-21 23:19:00,59.0,41.9,30.16,SSE,157,0.0,-999.0,53,0.00,,,0.00,open2300 v1.10,2013-04-22 04:19:00,
2013-04-21 23:24:00,58.8,42.6,30.15,SSE,157,0.0,-999.0,55,0.00,,,0.00,open2300 v1.10,2013-04-22 04:24:00,
2013-04-21 23:29:00,58.8,42.6,30.16,SSE,157,0.0,-999.0,55,0.00,,,0.00,open2300 v1.10,2013-04-22 04:29:00,
2013-04-21 23:34:00,58.6,42.5,30.15,SSE,157,0.0,-999.0,55,0.00,,,0.00,open2300 v1.10,2013-04-22 04:34:00,
2013-04-21 23:39:00,58.1,42.5,30.16,SSE,157,0.0,-999.0,56,0.00,,,0.00,open2300 v1.10,2013-04-22 04:39:00,
2013-04-21 23:44:00,57.9,42.3,30.16,SSE,157,0.0,-999.0,56,0.00,,,0.00,open2300 v1.10,2013-04-22 04:44:00,
2013-04-21 23:49:00,57.7,42.1,30.16,SSE,157,0.0,-999.0,56,0.00,,,0.00,open2300 v1.10,2013-04-22 04:49:00,
2013-04-21 23:54:00,57.6,42.4,30.16,SSE,157,0.0,-999.0,57,0.00,,,0.00,open2300 v1.10,2013-04-22 04:54:00,
2013-04-21 23:59:00,57.4,42.8,30.15,SSE,157,0.0,-999.0,58,0.00,,,0.00,open2300 v1.10,2013-04-22 04:59:00,